"2009-04-07 00:00:30",777934,4.057,163.2,8.59,1.188,8.04,102.8145,6.484,7.814,28.35,0,110.1,13.36,7.26,125.2
"2009-04-07 00:01:00",777935,4.543,168.5,4.854,1.168,6.26,102.8134,6.481,7.636,28.12,0,110.1,13.36,7.26,130.5
"2009-04-07 00:01:30",777936,4.67,178.1,9.69,1.322,5.878,102.814,6.482,7.678,28.27,0,110.1,13.36,7.26,140.1
"2009-04-07 00:02:00",777937,3.536,179.8,7.778,0.298,3.988,102.8143,6.483,7.541,28.4,0,110.1,13.39,7.26,141.8
"2009-04-07 00:02:30",777938,3.232,156.6,9.23,1.009,5.128,102.8115,6.476,7.708,28.5,0,110.1,13.35,7.25,118.6
"2009-04-07 00:03:00",777939,3.715,164.7,7.99,1.289,5.663,102.8118,6.477,7.554,28.08,0,110.1,13.35,7.25,126.7
"2009-04-07 00:03:30",777940,4.163,165.8,8.48,1.305,7.617,102.8127,6.479,7.78,28.3,0,110.1,13.35,7.25,127.8
"2009-04-07 00:04:00",777941,4.786,180.8,7.064,1.271,8,102.8113,6.475,7.779,28.32,0,110.1,13.35,7.25,142.8
"2009-04-07 00:04:30",777942,4.389,183.1,7.143,1.385,7.071,102.808,6.467,7.653,28.22,0,110.1,13.35,7.24,145.1
"2009-04-07 00:05:00",777943,3.234,183,8.92,0.494,4.082,102.7958,6.436,7.637,28.22,0,110.1,13.39,7.21,145.0
"2009-04-07 00:05:30",777944,2.477,183.8,10.98,0.462,3.868,102.7853,6.409,7.529,28.06,0,110.1,13.39,7.18,145.8
"2009-04-07 00:06:00",777945,3.179,174.1,4.724,0.41,4.335,102.7874,6.414,7.553,28.1,0,110.1,13.39,7.19,136.1
"2009-04-07 00:06:30",777946,4.663,182.9,8.39,1.396,6.609,102.7868,6.413,7.565,28.21,0,110.1,13.35,7.19,144.9
"2009-04-07 00:07:00",777947,4.425,170.3,7.775,1.263,7.177,102.79,6.421,7.755,28.52,0,110.1,13.35,7.20,132.3
"2009-04-07 00:07:30",777948,5.639,168.6,3.851,0.815,9.19,102.7906,6.423,7.799,28.73,0,110.1,13.35,7.20,130.6
"2009-04-07 00:08:00",777949,5.463,163.3,7.366,1.099,7.741,102.7915,6.425,7.763,28.61,0,110.1,13.36,7.20,125.3
"2009-04-07 00:08:30",777950,3.73,167.1,6.064,1.005,4.915,102.7938,6.431,7.555,28.43,0,110.1,13.36,7.21,129.1
"2009-04-07 00:09:00",777951,3.047,172.5,5.142,0.148,3.887,102.7938,6.431,7.511,28.33,0,110.1,13.39,7.21,134.5
"2009-04-07 00:09:30",777952,3.186,170.2,3.583,0.254,4.201,102.797,6.439,7.509,28.33,0,110.1,13.39,7.21,132.2
"2009-04-07 00:10:00",777953,3.608,178.3,4.189,0.795,5.508,102.7996,6.446,7.608,28.33,0,110.1,13.36,7.22,140.3
"2009-04-07 00:10:30",777954,4.881,177.2,5.833,1.122,8.51,102.8005,6.448,7.725,28.42,0,110.1,13.36,7.22,139.2
"2009-04-07 00:11:00",777955,4.528,173.8,7.626,1.293,7.521,102.8034,6.455,7.747,28.47,0,110.1,13.36,7.23,135.8
"2009-04-07 00:11:30",777956,5.359,180.5,5.832,1.146,7.909,102.7947,6.433,7.651,28.45,0,110.1,13.36,7.21,142.5
"2009-04-07 00:12:00",777957,4.646,168.9,7.369,1.288,6.342,102.7811,6.398,7.584,28.35,0,110.1,13.36,7.17,130.9
"2009-04-07 00:12:30",777958,3.516,170.6,3.55,0.248,3.91,102.773,6.378,7.46,28.23,0,110.1,13.39,7.15,132.6
"2009-04-07 00:13:00",777959,3.469,175.1,2.074,0.137,3.817,102.7724,6.376,7.459,28.21,0,110.1,13.39,7.15,137.1
"2009-04-07 00:13:30",777960,4.329,184.1,5.996,1.305,6.209,102.7736,6.379,7.536,28.28,0,110.1,13.36,7.15,146.1
"2009-04-07 00:14:00",777961,4.391,185.6,9.72,1.317,7.044,102.7747,6.382,7.647,28.42,0,110.1,13.36,7.16,147.6
"2009-04-07 00:14:30",777962,5.409,186.6,7.759,1.157,8.26,102.775,6.383,7.702,28.55,0,110.1,13.36,7.16,148.6
"2009-04-07 00:15:00",777963,5.144,185.2,6.98,1.324,6.638,102.7756,6.384,7.571,28.64,0,110.1,13.36,7.16,147.2
"2009-04-07 00:15:30",777964,4.871,181.3,6.025,1.214,6.631,102.7733,6.378,7.528,28.7,0,110.1,13.36,7.15,143.3
"2009-04-07 00:16:00",777965,4.05,175,5.577,1.081,5.597,102.7717,6.374,7.574,28.76,0,110.1,13.36,7.15,137.0
"2009-04-07 00:16:30",777966,3.276,175.4,4.508,1.008,5.29,102.766,6.36,7.498,28.66,0,110.1,13.36,7.13,137.4
"2009-04-07 00:17:00",777967,3.793,170.1,6.665,1.147,5.247,102.7612,6.347,7.472,28.45,0,110.1,13.36,7.12,132.1
"2009-04-07 00:17:30",777968,4.895,174.8,7.036,1.237,7.971,102.7561,6.335,7.56,28.4,0,110.1,13.36,7.11,136.8
"2009-04-07 00:18:00",777969,5.158,176.3,7.042,1.214,7.057,102.7449,6.306,7.587,28.41,0,110.1,13.36,7.08,138.3
"2009-04-07 00:18:30",777970,4.414,169.1,10.34,1.352,6.189,102.742,6.298,7.495,28.31,0,110.1,13.36,7.07,131.1
"2009-04-07 00:19:00",777971,4.433,159.5,5.382,0.993,5.074,102.742,6.298,7.386,28.42,0,110.1,13.36,7.07,121.5
"2009-04-07 00:19:30",777972,4.589,167.4,5.979,1.363,6.704,102.7415,6.297,7.498,28.85,0,110.1,13.36,7.07,129.4
"2009-04-07 00:20:00",777973,3.638,166.9,7.588,1.047,6.488,102.7155,6.231,7.468,29.03,0,110.1,13.36,7.00,128.9
"2009-04-07 00:20:30",777974,3.984,163.2,6.771,1.291,5.77,102.7082,6.212,7.415,29,0,110,13.35,6.99,125.2
"2009-04-07 00:21:00",777975,5.391,166,6.604,1.412,7.112,102.7082,6.212,7.402,29.21,0,110.1,13.36,6.99,128.0
"2009-04-07 00:21:30",777976,5.457,170,10.19,1.359,7.082,102.7082,6.212,7.473,29.21,0,110.1,13.35,6.99,132.0
"2009-04-07 00:22:00",777977,5.16,161.7,6.951,1.346,6.86,102.7082,6.212,7.364,28.99,0,110.1,13.35,6.99,123.7
"2009-04-07 00:22:30",777978,5.341,174,9.13,1.348,7.225,102.7082,6.212,7.423,28.93,0,110.1,13.35,6.99,136.0
"2009-04-07 00:23:00",777979,4.643,175.2,3.581,1.227,6.529,102.7082,6.212,7.405,28.82,0,110.1,13.35,6.99,137.2
"2009-04-07 00:23:30",777980,5.129,171.4,7.039,1.293,7.528,102.7082,6.212,7.395,28.86,0,110.1,13.36,6.99,133.4
"2009-04-07 00:24:00",777981,4.241,167.4,7.014,1.24,6.122,102.7082,6.212,7.382,28.78,0,110.1,13.36,6.99,129.4
"2009-04-07 00:24:30",777982,4.689,166.5,7.101,1.322,6.229,102.7059,6.206,7.356,28.9,0,110.1,13.36,6.98,128.5
"2009-04-07 00:25:00",777983,4.022,168.1,4.195,0.892,5.15,102.6851,6.153,7.36,29.39,0,110,13.36,6.93,130.1
"2009-04-07 00:25:30",777984,5.134,164.9,7.512,1.164,5.935,102.6743,6.125,7.218,29.28,0,110.1,13.36,6.90,126.9
"2009-04-07 00:26:00",777985,3.762,170.9,5.173,1.077,5.177,102.6743,6.125,7.33,29.25,0,110.1,13.36,6.90,132.9
"2009-04-07 00:26:30",777986,5.067,177.5,7.061,1.139,8.62,102.6743,6.125,7.399,29.25,0,110.1,13.36,6.90,139.5
"2009-04-07 00:27:00",777987,5.647,178.2,6.834,1.194,8.07,102.6743,6.125,7.418,29.17,0,110.1,13.36,6.90,140.2
"2009-04-07 00:27:30",777988,4.902,179.4,4.428,0.771,5.175,102.6743,6.125,7.319,28.94,0,110,13.36,6.90,141.4
"2009-04-07 00:28:00",777989,4.672,178.6,6.938,1.399,5.331,102.6684,6.11,7.16,28.73,0,110.1,13.36,6.88,140.6
"2009-04-07 00:28:30",777990,3.324,183,3.812,0.321,4.284,102.66,6.089,7.152,28.71,0,110.1,13.36,6.86,145.0
"2009-04-07 00:29:00",777991,4.792,189.4,8.03,1.265,6.643,102.6492,6.061,7.309,28.99,0,110.1,13.36,6.83,151.4
"2009-04-07 00:29:30",777992,4.828,188.2,5.919,1.263,7.34,102.6444,6.049,7.336,29.18,0,110.1,13.37,6.82,150.2
"2009-04-07 00:30:00",777993,5.37,182.6,7.067,1.112,8.44,102.6413,6.041,7.362,29.19,0,110.1,13.36,6.81,144.6
"2009-04-07 00:30:30",777994,4.897,176.4,6.189,1.226,7.929,102.6405,6.039,7.446,29.12,0,110.1,13.37,6.81,138.4
"2009-04-07 00:31:00",777995,4.538,168.8,7.507,1.229,5.139,102.6405,6.039,7.183,28.88,0,110.1,13.36,6.81,130.8
"2009-04-07 00:31:30",777996,3.787,165.3,3.195,0.127,4.108,102.6405,6.039,7.149,28.98,0,110.1,13.4,6.81,127.3
"2009-04-07 00:32:00",777997,3.582,165.5,1.783,0.156,4.465,102.6405,6.039,7.214,29.13,0,110.1,13.4,6.81,127.5
"2009-04-07 00:32:30",777998,5.122,171.1,9.11,1.239,7.478,102.6405,6.039,7.183,29.09,0,110.1,13.37,6.81,133.1
"2009-04-07 00:33:00",777999,5.43,166.5,7.451,1.088,8.31,102.6405,6.039,7.36,29.36,0,110.1,13.37,6.81,128.5
"2009-04-07 00:33:30",778000,5.302,173.7,7.261,1.172,8.65,102.6402,6.038,7.406,29.46,0,110.1,13.37,6.81,135.7
"2009-04-07 00:34:00",778001,5.648,170.9,8.04,1.219,7.909,102.6385,6.034,7.372,29.55,0,110,13.37,6.81,132.9
"2009-04-07 00:34:30",778002,4.552,163.8,5.278,1.293,5.437,102.634,6.022,7.084,29.42,0,110,13.37,6.80,125.8
"2009-04-07 00:35:00",778003,3.159,157,4.442,0.145,3.978,102.6306,6.014,7.096,29.69,0,110.1,13.4,6.79,119.0
"2009-04-07 00:35:30",778004,3.133,165.9,6.455,0.368,4.549,102.6182,5.982,7.14,29.81,0,110,13.4,6.76,127.9
"2009-04-07 00:36:00",778005,4.945,179.8,7.976,1.238,8.38,102.6084,5.957,7.318,29.99,0,110,13.36,6.73,141.8
"2009-04-07 00:36:30",778006,4.065,173.5,7.268,1.336,8.16,102.6078,5.955,7.284,29.89,0,110,13.36,6.73,135.5
"2009-04-07 00:37:00",778007,4.954,178.4,8.04,1.054,8.29,102.611,5.964,7.319,29.86,0,110,13.36,6.74,140.4
"2009-04-07 00:37:30",778008,5.418,182.9,6.86,1.222,7.721,102.6118,5.966,7.311,29.7,0,110,13.36,6.74,144.9
"2009-04-07 00:38:00",778009,3.937,176.6,1.941,0.187,4.061,102.6127,5.968,7.046,29.28,0,110,13.4,6.74,138.6
"2009-04-07 00:38:30",778010,3.78,167.6,3.11,0.175,3.945,102.6153,5.975,7.049,29.2,0,110,13.4,6.75,129.6
"2009-04-07 00:39:00",778011,4.472,166,8.44,1.098,5.755,102.6159,5.976,7.137,29.27,0,110,13.36,6.75,128.0
"2009-04-07 00:39:30",778012,5.323,172.8,6.179,1.273,7.784,102.6131,5.969,7.224,29.36,0,110,13.36,6.74,134.8
"2009-04-07 00:40:00",778013,5.829,179.4,7.278,1.194,8.7,102.609,5.959,7.253,29.47,0,110,13.37,6.73,141.4
"2009-04-07 00:40:30",778014,5.442,177.8,6.593,1.272,7.469,102.5924,5.916,7.244,29.44,0,110,13.37,6.69,139.8
"2009-04-07 00:41:00",778015,6.168,182.9,6.356,1.104,7.899,102.5928,5.917,7.132,29.3,0,110,13.37,6.69,144.9
"2009-04-07 00:41:30",778016,3.715,164.4,7.321,0.184,4.228,102.5936,5.919,7.003,29.21,0,110,13.4,6.69,126.4
"2009-04-07 00:42:00",778017,3.76,164.3,2.793,0.263,4.161,102.5974,5.929,6.988,29.45,0,110,13.41,6.70,126.3
"2009-04-07 00:42:30",778018,5.38,170.7,6.376,1.375,6.92,102.5974,5.929,7.199,29.74,0,110,13.38,6.70,132.7
"2009-04-07 00:43:00",778019,6.519,179.8,4.12,0.706,9.34,102.5952,5.923,7.301,29.92,0,110,13.38,6.70,141.8
"2009-04-07 00:43:30",778020,5.567,176,7.74,1.206,7.335,102.5851,5.898,7.057,29.74,0,110,13.38,6.67,138.0
"2009-04-07 00:44:00",778021,5.404,167,6.945,1.245,7.035,102.5719,5.864,7.081,29.78,0,110,13.38,6.64,129.0
"2009-04-07 00:44:30",778022,5.12,165.8,8,1.387,6.315,102.5725,5.865,7.104,29.8,0,110,13.38,6.64,127.8
"2009-04-07 00:45:00",778023,4.166,161.9,2.896,0.188,4.406,102.5736,5.868,6.927,29.89,0,110,13.41,6.64,123.9
"2009-04-07 00:45:30",778024,5.065,173.6,6.369,1.197,5.976,102.5734,5.868,6.958,29.93,0,110,13.38,6.64,135.6
"2009-04-07 00:46:00",778025,6.222,186,4.822,0.995,9.25,102.5624,5.839,7.214,30.01,0,110,13.38,6.61,148.0
"2009-04-07 00:46:30",778026,5.759,177.5,9.31,1.216,7.751,102.5406,5.784,7.147,29.86,0,110,13.38,6.56,139.5
"2009-04-07 00:47:00",778027,5.311,173.4,7.938,1.224,7.038,102.5398,5.782,6.989,29.67,0,110,13.38,6.55,135.4
"2009-04-07 00:47:30",778028,4.037,169,5.073,0.919,5.086,102.5398,5.782,6.914,29.6,0,110,13.38,6.55,131.0
"2009-04-07 00:48:00",778029,4.675,175.9,6.215,1.194,6.949,102.5398,5.782,6.963,29.64,0,110,13.38,6.55,137.9
"2009-04-07 00:48:30",778030,4.386,173.2,7.85,1.303,6.2,102.5353,5.77,6.89,29.59,0,110,13.38,6.54,135.2
"2009-04-07 00:49:00",778031,5.677,180.4,7.21,1.206,7.845,102.5262,5.747,6.979,29.63,0,110,13.38,6.52,142.4
"2009-04-07 00:49:30",778032,6.208,185,5.96,0.998,9.06,102.5085,5.702,7.082,29.77,0,110,13.38,6.47,147.0
"2009-04-07 00:50:00",778033,5.473,184.9,5.663,1.279,6.304,102.5059,5.695,6.902,29.43,0,110,13.38,6.47,146.9
"2009-04-07 00:50:30",778034,5.804,184,7.559,1.357,6.467,102.5059,5.695,6.894,29.39,0,110,13.38,6.47,146.0
"2009-04-07 00:51:00",778035,5,177.9,7.675,1.088,5.943,102.5059,5.695,6.949,29.48,0,110,13.38,6.47,139.9
"2009-04-07 00:51:30",778036,5.47,183.3,7.023,1.348,6.083,102.5059,5.695,6.754,29.33,0,110,13.38,6.47,145.3
"2009-04-07 00:52:00",778037,5.212,182.4,6.291,1.124,6.453,102.5056,5.695,6.878,29.45,0,110,13.38,6.47,144.4
"2009-04-07 00:52:30",778038,6.408,186.1,5.798,0.995,8.52,102.5014,5.684,7.036,29.63,0,110,13.38,6.46,148.1
"2009-04-07 00:53:00",778039,5.896,183.9,5.266,1.205,8.19,102.4932,5.663,6.965,29.52,0,110,13.38,6.43,145.9
"2009-04-07 00:53:30",778040,4.357,175,1.259,0.452,4.398,102.4774,5.622,6.762,29.31,0,110,13.38,6.39,137.0
"2009-04-07 00:54:00",778041,5.592,183.2,6.607,1.268,6.785,102.4723,5.609,6.786,29.36,0,110,13.38,6.38,145.2
"2009-04-07 00:54:30",778042,4.48,177.3,3.67,0.706,5.74,102.4721,5.609,6.856,29.45,0,110,13.38,6.38,139.3
"2009-04-07 00:55:00",778043,5.425,180,6.77,1.192,7.607,102.4721,5.609,6.869,29.5,0,110,13.38,6.38,142.0
"2009-04-07 00:55:30",778044,5.399,176.8,6.739,1.265,7.731,102.4721,5.609,6.92,29.63,0,110,13.38,6.38,138.8
"2009-04-07 00:56:00",778045,6.276,175,6.638,0.954,7.99,102.4721,5.609,6.937,29.75,0,110,13.38,6.38,137.0
"2009-04-07 00:56:30",778046,5.856,176.5,8.27,1.232,7.692,102.4718,5.608,6.82,29.78,0,110,13.38,6.38,138.5
"2009-04-07 00:57:00",778047,4.037,170.2,3.361,0.254,4.388,102.4636,5.587,6.67,29.63,0,110,13.42,6.36,132.2
"2009-04-07 00:57:30",778048,4.275,169.8,4.898,0.236,5.029,102.4563,5.568,6.769,29.79,0,110,13.42,6.34,131.8
"2009-04-07 00:58:00",778049,6.181,184.4,7.18,1.106,8.66,102.4407,5.529,6.908,29.81,0,110,13.38,6.30,146.4
"2009-04-07 00:58:30",778050,6.201,181.5,6.26,0.88,9.09,102.4385,5.523,6.832,29.7,0,110,13.39,6.29,143.5
"2009-04-07 00:59:00",778051,5.954,176.8,6.592,1.192,7.946,102.4394,5.525,6.814,29.79,0,110,13.39,6.30,138.8
"2009-04-07 00:59:30",778052,5.463,174.4,6.241,1.278,6.756,102.4396,5.526,6.75,29.64,0,110,13.39,6.30,136.4
"2009-04-07 01:00:00",778053,4.132,168.7,0.884,0.097,4.276,102.4388,5.524,6.652,29.51,0,110,13.42,6.30,130.7
"2009-04-07 01:00:30",778054,4.859,169.4,7.644,1.149,5.521,102.4333,5.51,6.629,29.52,0,110,13.39,6.28,131.4
"2009-04-07 01:01:00",778055,6.121,178.6,5.821,1.122,8.39,102.4153,5.464,6.768,29.74,0,110,13.39,6.23,140.6
"2009-04-07 01:01:30",778056,6.258,179.6,8.04,1.163,8.72,102.4176,5.47,6.849,29.88,0,110,13.39,6.24,141.6
"2009-04-07 01:02:00",778057,5.362,172.1,5.75,1.255,7.073,102.4199,5.476,6.744,29.86,0,110,13.39,6.25,134.1
"2009-04-07 01:02:30",778058,6.528,179.7,6.406,1.098,8.38,102.4243,5.487,6.748,29.93,0,110,13.39,6.26,141.7
"2009-04-07 01:03:00",778059,4.727,170.7,2.396,0.691,4.618,102.4215,5.48,6.574,29.82,0,110,13.39,6.25,132.7
"2009-04-07 01:03:30",778060,4.502,169.1,0.515,0.081,4.554,102.4199,5.476,6.526,29.79,0,110,13.42,6.25,131.1
"2009-04-07 01:04:00",778061,5.766,175.7,6.641,1.268,7.528,102.4064,5.441,6.696,29.93,0,110,13.39,6.21,137.7
"2009-04-07 01:04:30",778062,6.72,180.1,4.52,0.897,9.57,102.3985,5.421,6.788,29.99,0,110,13.39,6.19,142.1
"2009-04-07 01:05:00",778063,6.436,179.7,5.003,1.102,9.15,102.4017,5.429,6.752,30.11,0,110,13.39,6.20,141.7
"2009-04-07 01:05:30",778064,5.858,173.7,7.054,1.301,7.17,102.404,5.435,6.608,30.24,0,110,13.39,6.21,135.7
"2009-04-07 01:06:00",778065,5.728,172.6,6.612,1.212,6.578,102.3978,5.419,6.627,30.15,0,110,13.39,6.19,134.6
"2009-04-07 01:06:30",778066,4.591,167.7,0.949,0.098,4.39,102.3916,5.403,6.46,29.9,0,110,13.43,6.17,129.7
"2009-04-07 01:07:00",778067,5.483,171.7,7.357,1.026,5.983,102.3744,5.359,6.457,30.07,0,110,13.39,6.13,133.7
"2009-04-07 01:07:30",778068,6.918,173.1,4.954,1.045,9.17,102.371,5.351,6.757,30.49,0,109.9,13.39,6.12,135.1
"2009-04-07 01:08:00",778069,6.541,171.9,5.208,1.015,8.93,102.3713,5.351,6.729,30.53,0,109.9,13.39,6.12,133.9
"2009-04-07 01:08:30",778070,7.027,174.6,4.974,1.044,8.82,102.371,5.351,6.629,30.43,0,109.9,13.39,6.12,136.6
"2009-04-07 01:09:00",778071,4.781,169.5,3.996,0.658,5.518,102.3636,5.332,6.529,30.3,0,109.8,13.39,6.10,131.5
"2009-04-07 01:09:30",778072,5.518,171.3,5.209,1.237,5.953,102.3504,5.298,6.386,30.17,0,109.9,13.39,6.07,133.3
"2009-04-07 01:10:00",778073,5.343,174,6.598,1.128,6.519,102.3374,5.265,6.501,30.25,0,110,13.39,6.04,136.0
"2009-04-07 01:10:30",778074,6.415,179.1,6.991,1.227,8.08,102.3374,5.265,6.563,30.37,0,110,13.39,6.04,141.1
"2009-04-07 01:11:00",778075,6.534,178.4,6.283,1.193,8.92,102.3374,5.265,6.585,30.45,0,110,13.39,6.04,140.4
"2009-04-07 01:11:30",778076,6.738,178.9,6.571,1.146,8.45,102.3374,5.265,6.51,30.43,0,110,13.39,6.04,140.9
"2009-04-07 01:12:00",778077,5.563,172.6,6.83,1.196,6.873,102.3272,5.239,6.52,30.45,0,110,13.39,6.01,134.6
"2009-04-07 01:12:30",778078,5.48,171.9,6.241,1.109,6.471,102.3086,5.191,6.43,30.4,0,109.9,13.39,5.96,133.9
"2009-04-07 01:13:00",778079,5.703,170.3,5.554,1.249,6.299,102.3035,5.178,6.437,30.45,0,109.9,13.4,5.95,132.3
"2009-04-07 01:13:30",778080,6.406,174.9,6.313,1.22,8.1,102.3035,5.178,6.494,30.52,0,109.9,13.4,5.95,136.9
"2009-04-07 01:14:00",778081,5.925,174.9,6.994,1.266,7.602,102.3035,5.178,6.49,30.57,0,109.9,13.4,5.95,136.9
"2009-04-07 01:14:30",778082,6.817,179.7,5.999,1.185,8.78,102.3035,5.178,6.46,30.53,0,109.9,13.4,5.95,141.7
"2009-04-07 01:15:00",778083,6.337,178.8,6.131,1.227,7.634,102.2959,5.159,6.474,30.61,0,109.9,13.4,5.93,140.8
"2009-04-07 01:15:30",778084,5.934,176,7.014,1.311,7.095,102.2846,5.13,6.337,30.54,0,109.9,13.4,5.90,138.0
"2009-04-07 01:16:00",778085,5.416,174.3,6.446,1.026,6.35,102.2722,5.098,6.343,30.62,0,109.9,13.41,5.87,136.3
"2009-04-07 01:16:30",778086,6.504,181.7,6.002,1.197,8.44,102.2699,5.093,6.439,30.75,0,109.9,13.41,5.86,143.7
"2009-04-07 01:17:00",778087,5.55,174.7,5.36,1.095,6.382,102.272,5.098,6.355,30.69,0,109.9,13.41,5.87,136.7
"2009-04-07 01:17:30",778088,6.621,183.2,6.287,1.223,8.04,102.2725,5.099,6.348,30.73,0,109.9,13.41,5.87,145.2
"2009-04-07 01:18:00",778089,6.582,182.9,5.889,1.23,8.27,102.2709,5.095,6.431,30.88,0,109.9,13.41,5.86,144.9
"2009-04-07 01:18:30",778090,6.057,179.2,5.672,1.186,6.694,102.2617,5.071,6.255,30.76,0,109.9,13.41,5.84,141.2
"2009-04-07 01:19:00",778091,6.428,185.5,6.032,1.283,6.731,102.2507,5.043,6.293,30.93,0,109.9,13.41,5.81,147.5
"2009-04-07 01:19:30",778092,7.362,189.6,5.958,1.197,8.07,102.2557,5.056,6.402,31.11,0,109.9,13.41,5.83,151.6
"2009-04-07 01:20:00",778093,6.519,183.2,6.307,1.139,6.822,102.2597,5.066,6.295,31.05,0,109.9,13.41,5.84,145.2
"2009-04-07 01:20:30",778094,7.196,187.6,6.955,1.172,8.18,102.2635,5.076,6.293,31.09,0,109.9,13.41,5.85,149.6
"2009-04-07 01:21:00",778095,7.209,183.7,6.515,1.247,8.45,102.2655,5.081,6.327,31.18,0,109.9,13.41,5.85,145.7
"2009-04-07 01:21:30",778096,6.879,182.3,6.695,1.211,7.733,102.2661,5.083,6.24,31.11,0,109.9,13.41,5.85,144.3
"2009-04-07 01:22:00",778097,6.614,179.9,5.768,1.169,7.119,102.2583,5.063,6.218,31.11,0,109.9,13.41,5.83,141.9
"2009-04-07 01:22:30",778098,7.332,182.8,5.951,1.029,8.32,102.2396,5.015,6.256,31.13,0,109.9,13.41,5.78,144.8
"2009-04-07 01:23:00",778099,5.591,176.3,2.677,0.121,5.301,102.2365,5.007,6.153,31.1,0,109.9,13.45,5.78,138.3
"2009-04-07 01:23:30",778100,6.211,180.7,5.293,1.092,6.324,102.2365,5.007,6.188,31.2,0,109.9,13.41,5.78,142.7
"2009-04-07 01:24:00",778101,7.066,183.7,6.905,1.22,8.54,102.2348,5.003,6.273,31.34,0,109.9,13.41,5.77,145.7
"2009-04-07 01:24:30",778102,7.232,183.4,6.036,1.11,8.67,102.219,4.962,6.222,31.24,0,109.9,13.41,5.73,145.4
"2009-04-07 01:25:00",778103,7.344,186.7,5.729,1.139,8.74,102.2035,4.923,6.24,31.37,0,109.9,13.41,5.69,148.7
"2009-04-07 01:25:30",778104,7.143,183.6,6.4,1.24,8.09,102.2026,4.921,6.16,31.37,0,109.9,13.41,5.69,145.6
"2009-04-07 01:26:00",778105,5.875,177.1,2.213,0.536,4.942,102.2026,4.921,5.979,31.27,0,109.9,13.41,5.69,139.1
"2009-04-07 01:26:30",778106,6.317,177.5,6.234,1.337,6.004,102.2021,4.919,5.997,31.31,0,110,13.41,5.69,139.5
"2009-04-07 01:27:00",778107,7.317,183.4,6.136,1.259,8.78,102.195,4.901,6.219,31.56,0,109.9,13.41,5.67,145.4
"2009-04-07 01:27:30",778108,7.604,183.9,6.015,1.146,8.94,102.1772,4.856,6.202,31.62,0,109.9,13.41,5.62,145.9
"2009-04-07 01:28:00",778109,7.795,185.7,4.866,1.008,9.47,102.1687,4.834,6.196,31.7,0,109.9,13.41,5.60,147.7
"2009-04-07 01:28:30",778110,7.181,184.6,6.483,1.183,8.04,102.169,4.835,6.128,31.68,0,109.9,13.41,5.60,146.6
"2009-04-07 01:29:00",778111,6.082,179.8,5.932,0.955,5.496,102.169,4.835,5.979,31.61,0,109.9,13.41,5.60,141.8
"2009-04-07 01:29:30",778112,5.992,178,2.045,0.686,4.871,102.1696,4.836,5.982,31.68,0,109.9,13.42,5.61,140.0
"2009-04-07 01:30:00",778113,7.489,187.4,4.952,1.135,8.51,102.166,4.827,6.063,31.8,0,109.9,13.42,5.60,149.4
"2009-04-07 01:30:30",778114,7.097,185.8,6.068,1.219,8.22,102.1621,4.817,6.109,31.84,0,109.9,13.42,5.59,147.8
"2009-04-07 01:31:00",778115,7.648,189.9,5.733,0.903,9.29,102.1489,4.783,6.136,31.92,0,109.9,13.42,5.55,151.9
"2009-04-07 01:31:30",778116,7.472,189.7,6.008,1.172,8.5,102.1536,4.795,6.133,31.88,0,109.8,13.43,5.56,151.7
"2009-04-07 01:32:00",778117,5.858,182.1,3.487,0.485,5.45,102.1571,4.804,6.006,31.78,0,109.9,13.43,5.57,144.1
"2009-04-07 01:32:30",778118,6.691,184.4,6.753,1.194,6.193,102.1626,4.818,5.864,31.63,0,109.9,13.42,5.59,146.4
"2009-04-07 01:33:00",778119,7.263,187.1,6.617,1.318,7.656,102.1643,4.823,5.983,31.74,0,109.9,13.43,5.59,149.1
"2009-04-07 01:33:30",778120,7.618,190.1,6.115,1.174,8.45,102.1686,4.834,5.984,31.75,0,109.9,13.43,5.60,152.1
"2009-04-07 01:34:00",778121,7.735,193.3,4.986,1.001,9.46,102.1683,4.833,6.1,31.86,0,109.9,13.43,5.60,155.3
"2009-04-07 01:34:30",778122,7.923,192.6,5.063,0.886,9.52,102.1689,4.835,6.099,31.89,0,109.8,13.43,5.60,154.6
"2009-04-07 01:35:00",778123,6.923,187.8,6.32,1.222,7.336,102.1686,4.834,5.929,31.73,0,109.8,13.43,5.60,149.8
"2009-04-07 01:35:30",778124,7.005,188.4,6.267,1.373,6.603,102.1616,4.816,5.959,31.72,0,109.8,13.43,5.58,150.4
"2009-04-07 01:36:00",778125,5.837,182.8,0.391,0.07,4.861,102.1506,4.788,5.823,31.59,0,109.8,13.47,5.56,144.8
"2009-04-07 01:36:30",778126,6.365,184.8,4.778,1.079,6.243,102.1424,4.767,5.859,31.68,0,109.8,13.44,5.54,146.8
"2009-04-07 01:37:00",778127,7.9,194.1,4.619,0.903,9.72,102.1361,4.751,6.083,31.89,0,109.8,13.44,5.52,156.1
"2009-04-07 01:37:30",778128,7.733,192.4,5.528,0.986,9.52,102.1361,4.751,6.082,31.95,0,109.8,13.44,5.52,154.4
"2009-04-07 01:38:00",778129,7.733,192.6,4.369,0.887,9.47,102.1356,4.749,6.069,31.95,0,109.8,13.44,5.52,154.6
"2009-04-07 01:38:30",778130,5.735,181.2,2.509,0.73,4.807,102.1356,4.749,5.868,31.77,0,109.8,13.44,5.52,143.2
"2009-04-07 01:39:00",778131,6.603,184.2,7.691,1.264,6.427,102.1356,4.749,5.849,31.76,0,109.8,13.44,5.52,146.2
"2009-04-07 01:39:30",778132,6.681,181.3,6.503,1.216,6.754,102.1359,4.75,5.886,31.9,0,109.8,13.44,5.52,143.3
"2009-04-07 01:40:00",778133,6.98,184.4,5.779,1.301,8.15,102.1359,4.75,6.02,32.06,0,109.8,13.44,5.52,146.4
"2009-04-07 01:40:30",778134,7.67,187.1,5.087,0.988,9.51,102.1359,4.75,6.057,32.07,0,109.8,13.44,5.52,149.1
"2009-04-07 01:41:00",778135,7.765,188.1,3.091,0.943,9.7,102.1376,4.755,6.095,32.08,0,109.9,13.44,5.52,150.1
"2009-04-07 01:41:30",778136,7.049,184.4,6.69,1.296,7.431,102.1402,4.761,5.965,32.02,0,109.8,13.44,5.53,146.4
"2009-04-07 01:42:00",778137,5.781,177.4,1.664,0.131,4.64,102.1372,4.753,5.847,31.93,0,109.8,13.47,5.52,139.4
"2009-04-07 01:42:30",778138,5.785,178,1.752,0.256,4.829,102.1353,4.749,5.854,31.99,0,109.8,13.44,5.52,140.0
"2009-04-07 01:43:00",778139,7.619,186.2,5.162,1.122,8.95,102.1254,4.723,5.967,32.18,0,109.8,13.44,5.49,148.2
"2009-04-07 01:43:30",778140,7.546,182.2,6.434,1.204,8.55,102.123,4.717,5.949,32.23,0,109.8,13.44,5.49,144.2
"2009-04-07 01:44:00",778141,7.807,182.9,5.196,1.026,9.47,102.1236,4.719,6.092,32.36,0,109.8,13.44,5.49,144.9
"2009-04-07 01:44:30",778142,7.888,184,5.685,1.121,8.9,102.1251,4.723,5.964,32.25,0,109.8,13.44,5.49,146.0
"2009-04-07 01:45:00",778143,7.467,181.1,6.067,1.166,7.66,102.1291,4.733,5.806,32.15,0,109.8,13.44,5.50,143.1
"2009-04-07 01:45:30",778144,6.602,177.5,5.327,1.019,5.912,102.1314,4.739,5.814,32.16,0,109.8,13.44,5.51,139.5
"2009-04-07 01:46:00",778145,7.869,186.8,6.775,1.099,8.48,102.1352,4.748,5.957,32.36,0,109.8,13.44,5.52,148.8
"2009-04-07 01:46:30",778146,6.537,185.6,5.994,1.134,7.086,102.1346,4.747,5.928,32.37,0,109.8,13.45,5.52,147.6
"2009-04-07 01:47:00",778147,7.684,192.3,5.898,1.051,8.84,102.1357,4.75,5.954,32.39,0,109.8,13.45,5.52,154.3
"2009-04-07 01:47:30",778148,7.499,191.9,5.656,1.201,8.66,102.134,4.745,5.908,32.38,0,109.8,13.45,5.51,153.9
"2009-04-07 01:48:00",778149,7.095,186.8,6.355,1.179,7.115,102.1326,4.742,5.801,32.29,0,109.8,13.45,5.51,148.8
"2009-04-07 01:48:30",778150,7.068,189,7.085,1.148,7.382,102.1276,4.729,5.905,32.43,0,109.8,13.45,5.50,151.0
"2009-04-07 01:49:00",778151,7.103,193.8,6.817,1.146,8.49,102.1239,4.72,5.92,32.48,0,109.8,13.45,5.49,155.8
"2009-04-07 01:49:30",778152,6.938,194.8,6.018,1.238,8.64,102.1216,4.714,5.94,32.5,0,109.8,13.45,5.48,156.8
"2009-04-07 01:50:00",778153,6.838,192,6.065,1.273,7.617,102.1188,4.707,5.783,32.33,0,109.8,13.45,5.48,154.0